This demonstration page uses our WeatherBlox Daily Observations layout. Learn more.

Left ArrowRight Arrow

Hourly Observations for May 11, 2017

Temp ( °F °C ) Dew Point ( °F °C ) Humidity (%) Winds ( mph kmh ) Pressure ( in mb ) Visibility ( mi km ) Precip ( " mm )
12:11 am 00:11 Cloudy with Nearby Thunderstorms 68 20 63 17.2 84 84 SSW 5 7 29.88 1012 10 16 0.00 0.00
12:21 am 00:21 Cloudy with Thunderstorms 67 19.4 63 17.2 87 87 WSW 7 11 29.88 1012 10 16 0.00 0.00
12:49 am 00:49 Cloudy with Nearby Thunderstorms 68 20 63 17 83 83 NW 6 9 29.88 1012 10 16 0.00 0.00
12:52 am 00:52 Mostly Cloudy with Nearby Thunderstorms 67 19.4 62 16.7 84 84 NW 5 7 29.87 1012 10 16 0.00 0.00
12:59 am 00:59 Mostly Cloudy 66 18.9 63 17.2 90 90 NW 3 6 29.88 1012 10 16 0.00 0.00
1:35 am 01:35 Mostly Cloudy with Nearby Thunderstorms 66 18.9 63 17.2 90 90 Calm 29.85 1011 10 16 0.00 0.00
1:52 am 01:52 Cloudy with Thunderstorms 66 18.9 63 17.2 90 90 SW 6 9 29.88 1012 8 13 0.01 0.25
2:00 am 02:00 Cloudy with Strong Thunderstorms 66 19 63 17 88 88 W 12 19 29.91 1013 2 3 0.00 0.00
2:07 am 02:07 Cloudy with Strong Thunderstorms 66 18.9 64 17.8 93 93 WSW 8 13 29.91 1013 1 2 0.26 6.60
2:13 am 02:13 Cloudy with Thunderstorms 66 18.9 65 18.3 96 96 WSW 9 15 29.91 1013 3 5 0.27 6.86
2:23 am 02:23 Cloudy with Nearby Thunderstorms 66 18.9 64 17.8 93 93 WSW 12 19 29.88 1012 5 8 0.30 7.62
2:52 am 02:52 Mostly Cloudy with Light Rain 65 18.3 63 17.2 93 93 SSW 6 9 29.88 1012 9 14 0.36 9.14
3:11 am 03:11 Cloudy with Light Rain 65 18.3 63 17.2 93 93 W 5 7 29.91 1013 7 11 0.01 0.25
3:18 am 03:18 Cloudy with Light Rain 64 18 63 17 94 94 Calm 29.91 1013 6 10 0.00 0.00
3:32 am 03:32 Cloudy with Light Rain 64 17.8 62 16.7 93 93 Calm 29.88 1012 8 13 0.04 1.02
3:41 am 03:41 Mostly Cloudy 64 17.8 62 16.7 93 93 ESE 5 7 29.85 1011 10 16 0.04 1.02
3:52 am 03:52 Mostly Cloudy 64 17.8 62 16.7 93 93 ESE 7 11 29.84 1011 10 16 0.04 1.02
4:52 am 04:52 Clear 63 17.2 62 16.7 97 97 SE 3 6 29.87 1011 10 16 0.00 0.00
5:21 am 05:21 Partly Cloudy with Mist and Fog 61 16.1 60 15.6 97 97 S 8 13 29.88 1012 3 5 0.00 0.00
5:34 am 05:34 Mostly Cloudy 63 17 63 17 100 100 SSW 7 11 29.88 1012 10 16 0.00 0.00
5:52 am 05:52 Cloudy 63 17.2 62 16.7 97 97 WSW 6 9 29.89 1012 10 16 0.00 0.00
6:01 am 06:01 Cloudy 63 17.2 62 16.7 97 97 SW 6 9 29.91 1013 10 16 0.00 0.00
6:06 am 06:06 Cloudy 63 17 63 17 100 100 WSW 3 6 29.91 1013 10 16 0.00 0.00
6:44 am 06:44 Mostly Cloudy 62 16.7 61 16.1 96 96 WNW 6 9 29.91 1013 8 13 0.00 0.00
6:52 am 06:52 Mostly Cloudy with Mist and Fog 62 16.7 61 16.1 96 96 VRB 3 6 29.90 1012 6 10 0.00 0.00
7:52 am 07:52 Mostly Sunny 64 17.8 62 16.7 93 93 Calm 29.90 1013 9 14 0.00 0.00
8:52 am 08:52 Sunny 67 19.4 61 16.1 81 81 SW 6 9 29.90 1013 10 16 0.00 0.00
9:52 am 09:52 Mostly Cloudy 66 18.9 61 16.1 84 84 Calm 29.91 1013 10 16 0.00 0.00
10:09 am 10:09 Cloudy 66 18.9 61 16.1 84 84 SSW 3 6 29.91 1013 10 16 0.00 0.00
10:52 am 10:52 Cloudy 68 20 60 15.6 76 76 Calm 29.91 1013 10 16 0.00 0.00
11:52 am 11:52 Cloudy with Light Rain 66 18.9 62 16.7 87 87 Calm 29.92 1013 10 16 0.00 0.03
12:13 pm 12:13 Cloudy with Thunderstorms 67 19.4 61 16.1 81 81 Calm 29.91 1013 10 16 0.01 0.25
12:52 pm 12:52 Cloudy with Thunderstorms 67 19.4 64 17.8 91 91 N 10 17 29.91 1013 10 16 0.01 0.25
1:52 pm 13:52 Partly Cloudy with Thunderstorms 73 22.8 65 18.3 76 76 NE 9 15 29.85 1011 10 16 0.00 0.03
2:01 pm 14:01 Sunny 73 22.8 65 18.3 76 76 ENE 8 13 29.83 1010 10 16 0.00 0.00
2:52 pm 14:52 Partly Cloudy 74 23.3 64 17.8 71 71 ESE 7 11 29.83 1010 10 16 0.00 0.00
3:52 pm 15:52 Cloudy with Light Rain 71 21.7 65 18.3 81 81 S 6 9 29.84 1010 10 16 0.00 0.03
4:37 pm 16:37 Cloudy with Light Rain 70 21.1 66 18.9 87 87 WSW 5 7 29.85 1011 2 3 0.05 1.27
4:38 pm 16:38 Cloudy with Thunderstorms 69 20.6 66 18.9 90 90 SW 8 13 29.85 1011 3 4 0.05 1.27
4:47 pm 16:47 Cloudy with Strong Thunderstorms 68 20 63 17 83 83 NW 8 13 29.83 1010 1 2 0.24 6.10
4:52 pm 16:52 Cloudy with Strong Thunderstorms 68 20 65 18.3 90 90 Calm 29.84 1010 2 2 0.30 7.62
4:59 pm 16:59 Cloudy with Thunderstorms 68 20 66 18.9 93 93 SW 5 7 29.85 1011 3 5 0.02 0.51
5:52 pm 17:52 Partly Cloudy with Nearby Thunderstorms 67 19.4 61 16.1 81 81 E 9 15 29.82 1010 10 16 0.13 3.30
6:02 pm 18:02 Partly Cloudy 67 19.4 63 17.2 87 87 E 5 7 29.83 1010 10 16 0.00 0.00
6:30 pm 18:30 Cloudy 67 19.4 64 17.8 91 91 Calm 29.85 1011 10 16 0.00 0.00
6:52 pm 18:52 Cloudy 65 18.3 63 17.2 93 93 NW 5 7 29.84 1011 10 16 0.00 0.00
7:52 pm 19:52 Cloudy 66 18.9 62 16.7 87 87 NE 6 9 29.86 1011 10 16 0.00 0.00
8:52 pm 20:52 Mostly Clear 64 17.8 61 16.1 90 90 NNE 6 9 29.85 1011 10 16 0.00 0.00
9:05 pm 21:05 Mostly Cloudy 64 17.8 62 16.7 93 93 NNE 7 11 29.85 1011 10 16 0.00 0.00
9:52 pm 21:52 Cloudy 65 18.3 63 17.2 93 93 NNE 16 26 29.86 1011 10 16 0.00 0.00
10:49 pm 22:49 Cloudy 63 17 63 17 100 100 NNE 15 24 29.88 1012 10 16 0.00 0.00
10:52 pm 22:52 Cloudy with Light Rain 63 17.2 62 16.7 97 97 N 13 20 29.87 1012 10 16 0.00 0.03
11:29 pm 23:29 Cloudy with Light Rain 63 17.2 61 16.1 93 93 E 7 11 29.88 1012 10 16 0.00 0.03
11:52 pm 23:52 Cloudy with Heavy Rain 63 17.2 61 16.1 93 93 E 15 24 29.85 1011 5 8 0.05 1.27

Powered by AerisWeather